This is the latest recevied weather packets stored in our database for station/object AD0YN. If no packets are shown the sender has not sent any weather packets the latest 10 day(s).
| Time | Temp. | Humidity | Pressure | Rain* | Wind** | Luminosity | Snow |
|---|---|---|---|---|---|---|---|
| 1778053616 | 9.44° C | 58% | 1013.7 hPa | 0 mm | - | 0 W/m² | - |
| 1778053313 | 9.44° C | 60% | 1013.8 hPa | 0 mm | - | 0 W/m² | - |
| 1778053011 | 9.44° C | 58% | 1013.6 hPa | 0 mm | - | 0 W/m² | - |
| 1778052708 | 9.44° C | 58% | 1013.8 hPa | 0 mm | - | 0 W/m² | - |
| 1778052404 | 9.44° C | 58% | 1013.6 hPa | 0 mm | - | 0 W/m² | - |
| 1778052103 | 10° C | 58% | 1013.5 hPa | 0 mm | - | 0 W/m² | - |
| 1778051800 | 10° C | 57% | 1013.5 hPa | 0 mm | - | 0 W/m² | - |
| 1778051497 | 10° C | 57% | 1013.3 hPa | 0 mm | - | 0 W/m² | - |
| 1778051194 | 10° C | 56% | 1013.2 hPa | 0 mm | - | 0 W/m² | - |
| 1778050891 | 9.44° C | 58% | 1013.3 hPa | 0 mm | - | 0 W/m² | - |
| 1778050590 | 10° C | 59% | 1013.3 hPa | 0 mm | - | 0 W/m² | - |
| 1778050286 | 10° C | 59% | 1013.5 hPa | 0 mm | - | 0 W/m² | - |
| 1778049983 | 10° C | 57% | 1013.5 hPa | 0 mm | - | 0 W/m² | - |
| 1778049678 | 10° C | 57% | 1013.6 hPa | 0 mm | - | 0 W/m² | - |
| 1778049376 | 10° C | 58% | 1013.8 hPa | 0 mm | - | 0 W/m² | - |
| 1778049073 | 10° C | 60% | 1013.7 hPa | 0 mm | - | 0 W/m² | - |
| 1778048772 | 10° C | 58% | 1013.8 hPa | 0 mm | - | 0 W/m² | - |
| 1778048469 | 10° C | 60% | 1013.7 hPa | 0 mm | - | 0 W/m² | - |
| 1778048164 | 10.56° C | 54% | 1013.9 hPa | 0 mm | - | 0 W/m² | - |
| 1778047862 | 10.56° C | 52% | 1013.9 hPa | 0 mm | - | 0 W/m² | - |
| 1778047561 | 10.56° C | 55% | 1013.9 hPa | 0 mm | - | 0 W/m² | - |
| 1778047257 | 10.56° C | 52% | 1014.1 hPa | 0 mm | - | 0 W/m² | - |
| 1778046954 | 10.56° C | 57% | 1014.2 hPa | 0 mm | - | 0 W/m² | - |
| 1778046651 | 10.56° C | 65% | 1014.1 hPa | 0 mm | - | 0 W/m² | - |
| 1778046348 | 10.56° C | 62% | 1013.7 hPa | 0 mm | - | 0 W/m² | - |
* Rain latest hour (hover to see other rain measurements)
** Current wind speed in m/s (hover to see current wind gust speed)